• en France
  • Liste des pays
  • À 7 jours
  • Température de l'eau
  • Carte satellitaire
  • Carte météo
  • Widgets météo
  • user-avatar
    Se connecter

    Météo par heure à Nizhnee Olshanoe

    Ce jour, 19 Août, Dimanche

    Heure Température Précipitation Vent Pression Humidité
    00:00 +17°C° 0 mm 2 m/s 752 mmHg 70%
    01:00 +17°C° 0 mm 2 m/s 752 mmHg 71%
    02:00 +16°C° 0 mm 1 m/s 753 mmHg 72%
    03:00 +16°C° 0 mm 1 m/s 753 mmHg 74%
    04:00 +16°C° 0 mm 1 m/s 753 mmHg 75%
    05:00 +16°C° 0 mm 1 m/s 753 mmHg 76%
    06:00 +15°C° 0 mm 1 m/s 753 mmHg 77%
    07:00 +18°C° 0 mm 1 m/s 753 mmHg 71%
    08:00 +20°C° 0 mm 1 m/s 753 mmHg 65%
    09:00 +22°C° 0 mm 1 m/s 753 mmHg 59%
    10:00 +23°C° 0 mm 2 m/s 753 mmHg 55%
    11:00 +24°C° 0 mm 2 m/s 753 mmHg 50%
    12:00 +25°C° 0 mm 2 m/s 753 mmHg 46%
    13:00 +26°C° 0 mm 2 m/s 752 mmHg 44%
    14:00 +26°C° 0 mm 2 m/s 752 mmHg 42%
    15:00 +27°C° 0 mm 2 m/s 752 mmHg 41%
    16:00 +26°C° 0 mm 2 m/s 752 mmHg 43%
    17:00 +26°C° 0 mm 1 m/s 751 mmHg 45%
    18:00 +26°C° 0 mm 1 m/s 751 mmHg 48%
    19:00 +24°C° 0 mm 1 m/s 751 mmHg 50%
    20:00 +22°C° 0 mm 1 m/s 751 mmHg 53%
    21:00 +21°C° 0 mm 1 m/s 751 mmHg 56%
    22:00 +20°C° 0 mm 1 m/s 751 mmHg 58%
    23:00 +19°C° 0 mm 2 m/s 751 mmHg 59%

    Demain, 20 Août, Lundi

    Heure Température Précipitation Vent Pression Humidité
    00:00 +18°C° 0 mm 2 m/s 751 mmHg 61%
    01:00 +18°C° 0 mm 2 m/s 751 mmHg 62%
    02:00 +17°C° 0 mm 2 m/s 751 mmHg 64%
    03:00 +17°C° 0 mm 2 m/s 751 mmHg 66%
    04:00 +17°C° 0 mm 2 m/s 751 mmHg 68%
    05:00 +16°C° 0 mm 2 m/s 751 mmHg 70%
    06:00 +16°C° 0 mm 2 m/s 751 mmHg 72%
    07:00 +18°C° 0 mm 2 m/s 751 mmHg 67%
    08:00 +20°C° 0 mm 2 m/s 751 mmHg 62%
    09:00 +23°C° 0 mm 2 m/s 751 mmHg 57%
    10:00 +24°C° 0 mm 3 m/s 751 mmHg 52%
    11:00 +26°C° 0 mm 3 m/s 750 mmHg 48%
    12:00 +27°C° 0 mm 3 m/s 750 mmHg 43%
    13:00 +27°C° 0 mm 3 m/s 750 mmHg 42%
    14:00 +28°C° 0 mm 3 m/s 750 mmHg 41%
    15:00 +28°C° 0 mm 3 m/s 749 mmHg 39%
    16:00 +28°C° 0 mm 3 m/s 749 mmHg 43%
    17:00 +27°C° 0 mm 3 m/s 749 mmHg 46%
    18:00 +27°C° 0 mm 2 m/s 748 mmHg 49%
    19:00 +25°C° 0 mm 2 m/s 748 mmHg 52%
    20:00 +22°C° 0 mm 3 m/s 748 mmHg 55%
    21:00 +21°C° 0 mm 3 m/s 748 mmHg 58%
    22:00 +20°C° 0 mm 3 m/s 748 mmHg 59%
    23:00 +20°C° 0 mm 3 m/s 748 mmHg 60%

    Après-demain, 21 Août, Mardi

    Heure Température Précipitation Vent Pression Humidité
    00:00 +19°C° 0 mm 3 m/s 748 mmHg 61%
    01:00 +19°C° 0 mm 3 m/s 748 mmHg 61%
    02:00 +18°C° 0 mm 3 m/s 748 mmHg 61%
    03:00 +18°C° 0 mm 3 m/s 747 mmHg 61%
    04:00 +18°C° 0 mm 3 m/s 747 mmHg 62%
    05:00 +17°C° 0 mm 3 m/s 747 mmHg 62%
    06:00 +17°C° 0 mm 3 m/s 747 mmHg 62%
    07:00 +19°C° 0 mm 4 m/s 747 mmHg 59%
    08:00 +21°C° 0 mm 4 m/s 747 mmHg 55%
    09:00 +23°C° 0 mm 5 m/s 747 mmHg 51%
    10:00 +25°C° 0 mm 5 m/s 746 mmHg 47%
    11:00 +27°C° 0 mm 6 m/s 746 mmHg 44%
    12:00 +28°C° 0 mm 6 m/s 746 mmHg 40%
    13:00 +29°C° 0 mm 6 m/s 745 mmHg 40%
    14:00 +29°C° 0 mm 7 m/s 745 mmHg 39%
    15:00 +29°C° 0 mm 7 m/s 745 mmHg 39%
    16:00 +29°C° 0 mm 6 m/s 744 mmHg 43%
    17:00 +28°C° 0 mm 5 m/s 744 mmHg 48%
    18:00 +28°C° 0 mm 4 m/s 744 mmHg 52%
    19:00 +26°C° 0,2 mm 4 m/s 744 mmHg 56%
    20:00 +25°C° 0,2 mm 4 m/s 744 mmHg 61%
    21:00 +22°C° 0,2 mm 4 m/s 744 mmHg 66%
    22:00 +21°C° 0,2 mm 4 m/s 745 mmHg 73%
    23:00 +20°C° 0,2 mm 4 m/s 745 mmHg 79%

    22 Août, Mercredi

    Heure Température Précipitation Vent Pression Humidité
    00:00 +19°C° 0,2 mm 3 m/s 745 mmHg 85%
    01:00 +18°C° 0 mm 3 m/s 745 mmHg 86%
    02:00 +17°C° 0 mm 3 m/s 745 mmHg 87%
    03:00 +16°C° 0 mm 3 m/s 746 mmHg 88%
    04:00 +14°C° 0 mm 3 m/s 746 mmHg 88%
    05:00 +14°C° 0 mm 3 m/s 747 mmHg 87%
    06:00 +13°C° 0 mm 3 m/s 747 mmHg 87%
    07:00 +14°C° 0 mm 4 m/s 747 mmHg 78%
    08:00 +17°C° 0 mm 4 m/s 748 mmHg 70%
    09:00 +17°C° 0 mm 5 m/s 748 mmHg 62%
    10:00 +19°C° 0 mm 5 m/s 749 mmHg 57%
    11:00 +20°C° 0 mm 5 m/s 749 mmHg 51%
    12:00 +21°C° 0 mm 5 m/s 749 mmHg 46%
    13:00 +21°C° 0 mm 5 m/s 749 mmHg 45%
    14:00 +21°C° 0 mm 5 m/s 749 mmHg 44%
    15:00 +21°C° 0 mm 5 m/s 749 mmHg 43%
    16:00 +21°C° 0 mm 5 m/s 750 mmHg 45%
    17:00 +20°C° 0 mm 4 m/s 750 mmHg 48%
    18:00 +20°C° 0 mm 4 m/s 750 mmHg 50%
    19:00 +18°C° 0 mm 3 m/s 751 mmHg 55%
    20:00 +17°C° 0 mm 3 m/s 751 mmHg 59%
    21:00 +15°C° 0 mm 2 m/s 752 mmHg 64%
    22:00 +14°C° 0 mm 2 m/s 752 mmHg 66%
    23:00 +14°C° 0 mm 2 m/s 752 mmHg 69%

    23 Août, Jeudi

    Heure Température Précipitation Vent Pression Humidité
    00:00 +13°C° 0 mm 2 m/s 753 mmHg 71%
    01:00 +13°C° 0 mm 2 m/s 753 mmHg 72%
    02:00 +12°C° 0 mm 2 m/s 753 mmHg 74%
    03:00 +12°C° 0 mm 2 m/s 753 mmHg 75%
    04:00 +10°C° 0 mm 2 m/s 753 mmHg 76%
    05:00 +10°C° 0 mm 2 m/s 753 mmHg 77%
    06:00 +10°C° 0 mm 2 m/s 754 mmHg 78%
    07:00 +13°C° 0 mm 2 m/s 754 mmHg 71%
    08:00 +14°C° 0 mm 2 m/s 754 mmHg 64%
    09:00 +16°C° 0 mm 2 m/s 754 mmHg 58%
    10:00 +19°C° 0 mm 1 m/s 754 mmHg 53%
    11:00 +20°C° 0 mm 1 m/s 754 mmHg 48%
    12:00 +21°C° 0 mm 1 m/s 754 mmHg 43%
    13:00 +22°C° 0 mm 1 m/s 754 mmHg 41%
    14:00 +22°C° 0 mm 1 m/s 754 mmHg 40%
    15:00 +23°C° 0 mm 1 m/s 753 mmHg 38%
    16:00 +23°C° 0 mm 1 m/s 753 mmHg 39%
    17:00 +22°C° 0 mm 1 m/s 753 mmHg 41%
    18:00 +22°C° 0 mm 1 m/s 753 mmHg 42%
    19:00 +20°C° 0 mm 1 m/s 753 mmHg 46%
    20:00 +19°C° 0 mm 1 m/s 753 mmHg 50%
    21:00 +16°C° 0 mm 1 m/s 753 mmHg 53%
    22:00 +15°C° 0 mm 1 m/s 753 mmHg 55%
    23:00 +15°C° 0 mm 1 m/s 753 mmHg 56%

    24 Août, Vendredi

    Heure Température Précipitation Vent Pression Humidité
    00:00 +14°C° 0 mm 1 m/s 753 mmHg 58%
    01:00 +14°C° 0 mm 1 m/s 753 mmHg 59%
    02:00 +14°C° 0 mm 1 m/s 753 mmHg 61%
    03:00 +13°C° 0 mm 1 m/s 753 mmHg 62%
    04:00 +13°C° 0 mm 1 m/s 753 mmHg 64%
    05:00 +13°C° 0 mm 1 m/s 753 mmHg 65%
    06:00 +13°C° 0 mm 1 m/s 753 mmHg 67%
    07:00 +15°C° 0 mm 1 m/s 753 mmHg 62%
    08:00 +18°C° 0 mm 1 m/s 753 mmHg 56%
    09:00 +20°C° 0 mm 1 m/s 753 mmHg 51%
    10:00 +20°C° 0 mm 2 m/s 753 mmHg 47%
    11:00 +21°C° 0 mm 2 m/s 753 mmHg 43%
    12:00 +23°C° 0 mm 2 m/s 753 mmHg 39%
    13:00 +24°C° 0 mm 2 m/s 752 mmHg 38%
    14:00 +25°C° 0 mm 2 m/s 752 mmHg 36%
    15:00 +25°C° 0 mm 2 m/s 752 mmHg 35%
    16:00 +25°C° 0 mm 2 m/s 752 mmHg 38%
    17:00 +25°C° 0 mm 1 m/s 751 mmHg 41%
    18:00 +24°C° 0 mm 1 m/s 751 mmHg 44%
    19:00 +22°C° 0 mm 1 m/s 751 mmHg 47%
    20:00 +20°C° 0 mm 2 m/s 751 mmHg 50%
    21:00 +18°C° 0 mm 2 m/s 751 mmHg 53%
    22:00 +17°C° 0 mm 2 m/s 751 mmHg 54%
    23:00 +17°C° 0 mm 2 m/s 751 mmHg 56%
    Voir plus